Hourly Data Report for May 11, 2020

All times are specified in Local Standard Time (LST). Add 1 hour to adjust for Daylight Saving Time where and when it is observed.

OTTAWA INTL A
ONTARIO
Current Station Operator: NAVCAN

45°19'00.000" N
75°40'00.000" W
114.90 m
6106001
71628
YOW

Download Data

Hourly Data (May 2020)
Hourly Data Report for May 11, 2020
TIME Temp Definition
°C
Dew Point Definition
°C
Rel Hum Definition
%
Wind Dir Definition
10's deg

Wind Spd Definition
km/h
Visibility Definition
km
Stn Press Definition
kPa
Hmdx Definition


Wind Chill Definition


Weather Definition


00:00 3.9 -4.7 54 33 14 24.1 99.78     LegendNANA
01:00 1.8 -4.8 61 32 10 24.1 99.78     Mainly Clear
02:00 1.2 -4.8 64 31 10 24.1 99.79     LegendNANA
03:00 1.9 -4.1 65 34 13 24.1 99.78     LegendNANA
04:00 1.7 -3.8 67 33 14 24.1 99.83     Mostly Cloudy
05:00 1.9 -4.2 64 33 13 24.1 99.85     LegendNANA
06:00 1.9 -4.2 64 33 14 24.1 99.89     LegendNANA
07:00 2.3 -4.0 63 34 13 24.1 99.87     Mostly Cloudy
08:00 3.3 -3.8 59 32 16 24.1 99.87     LegendNANA
09:00 4.4 -4.5 53 34 22 24.1 99.85     LegendNANA
10:00 6.3 -4.0 47 35 20 24.1 99.84     Mostly Cloudy
11:00 6.0 -5.3 44 34 14 24.1 99.80     LegendNANA
12:00 6.8 -3.8 47 32 11 24.1 99.76     LegendNANA
13:00 7.7 -3.4 45 36 10 24.1 99.71     Mostly Cloudy
14:00 8.6 -3.9 41 33 21 24.1 99.69     LegendNANA
15:00 9.2 -4.5 38 32 7 24.1 99.64     LegendNANA
16:00 10.2 -3.7 37 35 16 24.1 99.62     Mostly Cloudy
17:00 9.3 -4.5 37 31 21 24.1 99.63     LegendNANA
18:00 9.0 -4.5 38 31 21 24.1 99.66     LegendNANA
19:00 8.0 -4.5 41 27 15 24.1 99.70     Mostly Cloudy
20:00 7.5 -5.7 38 30 18 24.1 99.76     LegendNANA
21:00 5.8 -5.1 45 29 19 24.1 99.86     LegendNANA
22:00 5.3 -8.1 37 33 23 24.1 99.91     Mainly Clear
23:00 4.1 -11.4 31 34 30 24.1 99.94     LegendNANA

Notes on Data Quality.

Legend

  • E = Estimated
  • M = Missing
  • NA = Not Available*
  • [empty] = Indicates an unobserved value
Date modified: